Location: Unspecified
(36.3960°N, 0.0000°E)
Time: 04:16:12
(UTC+00:00)

Cosmos 1190 Rocket - Visible Passes

Search period start: 05 April 2026 00:00
Search period end: 15 April 2026 00:00
Orbit: 752 x 776 km, 74.1° (Epoch: 29 March)

Date Brightness Start Highest point End Pass type
(mag) Time Alt. Az. Time Alt. Az. Time Alt. Az.
5 Apr 6.9 01:26:31 10° N 01:26:54 12° N 01:26:54 12° N visible
8 Apr 7.0 01:13:01 10° N 01:13:06 10° N 01:13:06 10° N visible
12 Apr 7.0 00:21:38 10° N 00:21:49 11° N 00:21:49 11° N visible
12 Apr 7.0 23:43:55 10° NNE 23:44:00 10° NNE 23:44:00 10° NNE visible
